Flag for Germany Weather past 2 weeks in Achern, Baden-Württemberg, Germany

Now
66 °F

Passing clouds.


Feels Like: 66 °F
Forecast: 65 / 88 °F
Wind: 5 mph from South

Location: Karlsruhe - Baden Wurttemberg

Current Time: Aug 30, 2015 at 6:02:11 AM

Latest Report: Aug 30, 2015 at 5:20 AM


Visibility: N/A

Pressure: 30.07 "Hg

Humidity: 88%

Dew point: 63 °F

Location of AchernLocation

Historic Weather in Achern — Graph

°F

Achern temperature yesterday

Maximum temperature yesterday: 86 °F (at 3:50 PM)
Minimum temperature yesterday: 64 °F (at 4:50 AM)
Average temperature yesterday: 74 °F

Past Weeks' High & Low Weather Summary

 TemperatureHumidityPressure
High91 °F (Aug 27, 3:50 PM)94% (Aug 17, 4:50 AM)30.24 "Hg (Aug 17, 4:50 AM)
Low48 °F (Aug 18, 5:50 AM)21% (Aug 27, 3:20 PM)29.68 "Hg (Aug 24, 7:20 AM)
Average67 °F64%30.00 "Hg
* Reported Aug 15 4:50 AM — Aug 30 4:20 AM, Achern, Weather by CustomWeather, © 2015

Note: Actual official high and low records may vary slightly from our data, if they occured in-between our weather recording intervals... More about our weather records

Advertising

Achern weather history for previous 24 hours

 ConditionsComfort  
Time TempWeatherWind HumidityBarometerVisibility
4:20 AM
Sun, Aug 30
66 °FClear.1 mph88%30.07 "Hg10 mi
3:20 AM66 °FClear.1 mph88%30.07 "Hg10 mi
10:50 PM
Sat, Aug 29
75 °FClear.3 mph65%30.07 "Hg10 mi
10:20 PM75 °FClear.7 mph65%30.07 "Hg10 mi
9:50 PM75 °FClear.7 mph65%30.07 "Hg10 mi
9:20 PM77 °FClear.5 mph65%30.07 "Hg10 mi
8:50 PM79 °FSunny.5 mph61%30.07 "Hg10 mi
8:20 PM81 °FSunny.5 mph58%30.07 "Hg10 mi
7:50 PM81 °FSunny.5 mph58%30.04 "Hg10 mi
7:20 PM84 °FSunny.6 mph51%30.07 "Hg10 mi
6:50 PM84 °FSunny.5 mph48%30.07 "Hg10 mi
6:20 PM86 °FSunny.5 mph46%30.07 "Hg10 mi
5:50 PM84 °FSunny.5 mph45%30.07 "Hg10 mi
5:20 PM86 °FSunny.5 mph43%30.07 "Hg10 mi
4:50 PM86 °FSunny.5 mph35%30.09 "Hg10 mi
4:20 PM86 °FPassing clouds.5 mph40%30.09 "HgN/A
3:50 PM86 °FSunny.6 mph43%30.09 "Hg10 mi
3:20 PM84 °FPassing clouds.5 mph45%30.12 "HgN/A
2:50 PM82 °FSunny.3 mph51%30.12 "Hg10 mi
2:20 PM82 °FSunny.3 mph51%30.15 "Hg10 mi
1:50 PM79 °FSunny.5 mph58%30.15 "Hg10 mi
1:20 PM77 °FPassing clouds.5 mph65%30.18 "HgN/A
12:50 PM75 °FPassing clouds.2 mph65%30.18 "HgN/A
11:50 AM70 °FScattered clouds.2 mph83%30.18 "Hg5 mi
11:20 AM68 °FFog.3 mph88%30.21 "Hg2 mi
10:50 AM66 °FFog.No wind94%30.18 "Hg1 mi
10:20 AM66 °FSleet. Cloudy.No wind94%30.18 "Hg1 mi
9:58 AM64 °FMild.1 mph94%30.18 "Hg1 mi
9:20 AM64 °FSleet. Dense fog.2 mph94%30.18 "Hg1 mi
8:50 AM64 °FFog.2 mph94%30.18 "Hg1 mi
7:50 AM64 °FFog.2 mph88%30.18 "Hg1 mi
7:20 AM64 °FFog.3 mph88%30.15 "Hg1 mi
6:50 AM64 °FFog.6 mph88%30.15 "Hg1 mi
6:20 AM64 °FFog.5 mph88%30.15 "Hg2 mi
Weather by CustomWeather, © 2015

See weather overviewHow to use our weather pages